IRIDIUM 149 (43250 NORAD) Tracking and Keplerian Element Data

This shows tracking and keplerian element data for the satellite.

Feedback or suggestion? Click here.




ElementValue
Catalog43250
NameIRIDIUM 149
Epoch Orbit35872
Epoch Day34.81062996
Epoch Year2025
RAAN138.7431
Inclination86.401
Eccentricity0.0002177
Argument of Perigee91.2158
Mean Anonmoly268.9287
Mean Motion14.34214668
Decay Rate6.56E-06
L11 43250U 18030B 25034.81062996 .00000656 00000+0 22726-3 0 9999
L22 43250 86.4010 138.7431 0002177 91.2158 268.9287 14.34214668358721



Live tracking and technical data element details for IRIDIUM 149 (NORAD 43250). IRIDIUM 149 can be tracked NOW for your location showing map with azimuth and elevation plus other details from your city location.







IsCatalogInMostPopularTable: catalog: 43250, numindb: 533
Update: records affected: 1



GetName: 43250 IRIDIUM 149

Hit Count: updated at: Fri, 16 May 2025 11:59:59 GMT